GW2991 Weather Reports


Display with metric or nautical units.
time (UTC)temp
F
wind
direction
speed
MPH
gust
MPH
rain 1hr
in
rain 24hr
in
rain mn
in
humidity
%
barometer
mb
20260503180226 67 313 7.0 17.0 0.00 0.00 0.00 32 1010.1
20260503175728 67 1 8.0 17.0 0.00 0.00 0.00 32 1009.8
20260503175227 66 347 9.0 18.0 0.00 0.00 0.00 32 1009.7
20260503174727 66 349 10.0 19.0 0.00 0.00 0.00 32 1009.7
20260503174227 66 335 10.0 19.0 0.00 0.00 0.00 32 1009.5
20260503173727 66 326 10.0 19.0 0.00 0.00 0.00 32 1009.8
20260503173227 66 357 9.0 20.0 0.00 0.00 0.00 32 1009.6
20260503172727 66 329 8.0 20.0 0.00 0.00 0.00 31 1009.6
20260503171728 66 323 8.0 15.0 0.00 0.00 0.00 33 1009.5
20260503171227 66 340 7.0 15.0 0.00 0.00 0.00 33 1009.6
20260503170727 65 345 7.0 15.0 0.00 0.00 0.00 34 1009.5
20260503170224 65 348 7.0 15.0 0.00 0.00 0.00 34 1009.6
20260503150716 60 325 6.0 13.0 0.00 0.00 0.00 42 1009.3
20260503150216 60 326 7.0 15.0 0.00 0.00 0.00 42 1009.4
20260503140213 56 290 5.0 11.0 0.00 0.00 0.00 45 1009.3
20260503131208 51 278 3.0 7.0 0.00 0.00 0.00 50 1009.4
20260503130707 51 279 3.0 7.0 0.00 0.00 0.00 50 1009.4
20260503130208 51 300 2.0 7.0 0.00 0.00 0.00 51 1009.5
20260503120151 51 297 2.0 6.0 0.00 0.00 0.00 50 1009.7
20260503110648 50 214 2.0 4.0 0.00 0.00 0.00 49 1009.7
20260503110146 50 218 2.0 4.0 0.00 0.00 0.00 49 1009.8
20260503090140 51 211 2.0 4.0 0.00 0.00 0.00 46 1010.5
20260503081139 53 252 2.0 5.0 0.00 0.00 0.00 44 1010.9
20260503080640 53 240 2.0 4.0 0.00 0.00 0.00 44 1011.0
20260503080140 54 225 2.0 4.0 0.00 0.00 0.00 43 1011.0
20260503072637 56 319 3.0 8.0 0.00 0.00 0.00 40 1010.9
20260503072138 56 306 4.0 8.0 0.00 0.00 0.00 40 1010.9
20260503071637 56 299 4.0 7.0 0.00 0.00 0.00 40 1010.9
20260503071138 56 321 4.0 7.0 0.00 0.00 0.00 40 1010.9
20260503054627 58 238 3.0 7.0 0.00 0.00 0.00 39 1010.5
20260503054127 58 214 3.0 7.0 0.00 0.00 0.00 39 1010.2
20260503053627 58 265 3.0 7.0 0.00 0.00 0.00 40 1010.2
20260503053125 58 249 3.0 7.0 0.00 0.00 0.00 40 1010.1
20260503052631 58 229 3.0 6.0 0.00 0.00 0.00 41 1010.2
20260503052126 58 219 3.0 6.0 0.00 0.00 0.00 41 1010.2
20260503051626 58 224 2.0 5.0 0.00 0.00 0.00 41 1010.2
20260503050625 57 197 2.0 5.0 0.00 0.00 0.00 41 1010.2
20260503050125 57 198 2.0 5.0 0.00 0.00 0.00 42 1010.1
20260503045624 57 186 1.0 4.0 0.00 0.00 0.00 43 1010.3
20260503045125 58 178 0.0 2.0 0.00 0.00 0.00 43 1010.7
20260503044623 58 350 1.0 4.0 0.00 0.00 0.00 42 1010.8
20260503043620 59 198 1.0 3.0 0.00 0.00 0.00 41 1010.5
20260503042620 60 0 1.0 3.0 0.00 0.00 0.00 39 1010.6
20260503042123 61 186 1.0 4.0 0.00 0.00 0.00 37 1010.6
20260503041118 62 156 2.0 4.0 0.00 0.00 0.00 37 1010.2
20260503040617 62 142 2.0 4.0 0.00 0.00 0.00 37 1010.2
20260503040118 62 291 2.0 4.0 0.00 0.00 0.00 36 1010.1
20260503035619 62 201 2.0 4.0 0.00 0.00 0.00 36 1010.1
20260503035118 62 197 2.0 4.0 0.00 0.00 0.00 36 1010.0
20260503034617 62 176 1.0 3.0 0.00 0.00 0.00 37 1010.0
20260503034116 62 190 1.0 2.0 0.00 0.00 0.00 38 1010.1
20260503033616 63 267 1.0 2.0 0.00 0.00 0.00 37 1010.1
20260503033120 63 205 1.0 3.0 0.00 0.00 0.00 36 1010.0
20260503032619 63 193 1.0 3.0 0.00 0.00 0.00 35 1010.0
20260503032123 64 197 1.0 2.0 0.00 0.00 0.00 35 1010.0
20260503031618 64 200 1.0 2.0 0.00 0.00 0.00 35 1010.1
20260503031118 64 207 1.0 2.0 0.00 0.00 0.00 33 1010.1
20260503030621 65 190 1.0 2.0 0.00 0.00 0.00 33 1010.1
20260503030118 65 218 1.0 2.0 0.00 0.00 0.00 32 1010.2
20260503025622 66 222 1.0 3.0 0.00 0.00 0.00 30 1010.2
20260503025119 66 216 1.0 4.0 0.00 0.00 0.00 30 1010.2
20260503024614 67 270 1.0 4.0 0.00 0.00 0.00 30 1010.3
20260503024114 67 285 2.0 6.0 0.00 0.00 0.00 30 1010.3
20260503023615 68 293 2.0 6.0 0.00 0.00 0.00 29 1010.2
20260503023113 68 307 2.0 6.0 0.00 0.00 0.00 29 1010.2
20260503022613 68 297 2.0 6.0 0.00 0.00 0.00 29 1010.1
20260503022112 68 296 2.0 6.0 0.00 0.00 0.00 29 1010.1
20260503021612 69 302 3.0 8.0 0.00 0.00 0.00 29 1010.1
20260503020613 69 304 3.0 9.0 0.00 0.00 0.00 29 1010.0
20260503020119 69 209 3.0 9.0 0.00 0.00 0.00 30 1010.1
20260503015613 69 270 3.0 7.0 0.00 0.00 0.00 30 1010.1
20260503015118 69 276 4.0 7.0 0.00 0.00 0.00 29 1010.0
20260503013612 70 242 3.0 8.0 0.00 0.00 0.00 29 1010.2
20260503013112 70 327 2.0 8.0 0.00 0.00 0.00 29 1010.3
20260503012614 70 275 3.0 9.0 0.00 0.00 0.00 28 1010.5
20260503011612 70 247 3.0 11.0 0.00 0.00 0.00 28 1010.3
20260503010612 71 229 4.0 11.0 0.00 0.00 0.00 29 1010.2
20260503005612 72 278 2.0 7.0 0.00 0.00 0.00 28 1010.7
20260503004610 72 274 3.0 10.0 0.00 0.00 0.00 28 1010.7
20260503004110 72 318 4.0 11.0 0.00 0.00 0.00 28 1010.7
20260503003612 73 286 4.0 11.0 0.00 0.00 0.00 28 1010.8
20260503003110 73 293 4.0 11.0 0.00 0.00 0.00 28 1010.7
20260503002110 73 237 3.0 10.0 0.00 0.00 0.00 28 1010.8
20260503001610 72 203 4.0 12.0 0.00 0.00 0.00 28 1010.7
20260503001110 71 275 4.0 15.0 0.00 0.00 0.00 29 1011.0
20260503000609 71 264 4.0 15.0 0.00 0.00 0.00 29 1011.4
20260503000108 72 320 4.0 10.0 0.00 0.00 0.00 28 1011.7
20260502235609 72 276 4.0 13.0 0.00 0.00 0.00 28 1011.6
20260502234608 72 238 4.0 10.0 0.00 0.00 0.00 28 1011.4
20260502234108 71 272 4.0 11.0 0.00 0.00 0.00 29 1011.4
20260502233608 71 208 4.0 11.0 0.00 0.00 0.00 29 1011.7
20260502232608 71 285 5.0 13.0 0.00 0.00 0.00 29 1012.1
20260502231608 72 252 5.0 12.0 0.00 0.00 0.00 29 1011.9
20260502231109 72 238 4.0 15.0 0.00 0.00 0.00 29 1012.1
20260502230608 73 247 4.0 15.0 0.00 0.00 0.00 28 1012.2
20260502225608 72 323 4.0 11.0 0.00 0.00 0.00 29 1012.3
20260502225108 72 86 5.0 15.0 0.00 0.00 0.00 29 1012.5
20260502224608 72 280 4.0 15.0 0.00 0.00 0.00 28 1012.5
20260502224108 72 270 4.0 13.0 0.00 0.00 0.00 28 1012.5
20260502223608 72 286 4.0 13.0 0.00 0.00 0.00 29 1012.7
20260502223111 73 271 4.0 13.0 0.00 0.00 0.00 29 1012.6
20260502222608 72 241 4.0 13.0 0.00 0.00 0.00 29 1012.8
20260502222108 72 259 4.0 13.0 0.00 0.00 0.00 29 1012.9
20260502221608 72 306 4.0 12.0 0.00 0.00 0.00 29 1013.0
20260502221106 71 326 4.0 13.0 0.00 0.00 0.00 30 1013.1
20260502220607 71 271 4.0 13.0 0.00 0.00 0.00 30 1013.2
20260502220107 71 225 4.0 12.0 0.00 0.00 0.00 29 1013.1
20260502215607 71 234 4.0 13.0 0.00 0.00 0.00 29 1013.3
20260502214608 71 265 5.0 15.0 0.00 0.00 0.00 29 1013.6
20260502214108 70 224 4.0 11.0 0.00 0.00 0.00 29 1013.6
20260502213606 70 242 4.0 11.0 0.00 0.00 0.00 29 1013.7
20260502213108 70 258 4.0 13.0 0.00 0.00 0.00 30 1013.8
20260502212606 70 225 4.0 13.0 0.00 0.00 0.00 30 1013.7
20260502211605 69 147 5.0 14.0 0.00 0.00 0.00 29 1014.0
20260502211105 70 253 5.0 14.0 0.00 0.00 0.00 29 1014.2
20260502210116 70 194 4.0 11.0 0.00 0.00 0.00 29 1014.2
20260502205605 71 292 3.0 9.0 0.00 0.00 0.00 29 1014.1
20260502205105 70 313 4.0 12.0 0.00 0.00 0.00 29 1014.1
20260502204606 70 262 4.0 12.0 0.00 0.00 0.00 30 1014.3
20260502203605 71 198 3.0 8.0 0.00 0.00 0.00 29 1014.2
20260502203106 71 339 4.0 11.0 0.00 0.00 0.00 29 1014.4
20260502202608 71 317 4.0 11.0 0.00 0.00 0.00 29 1014.8
20260502202105 70 323 4.0 11.0 0.00 0.00 0.00 29 1014.6
20260502201605 70 42 4.0 11.0 0.00 0.00 0.00 30 1014.7
20260502201105 70 296 4.0 10.0 0.00 0.00 0.00 29 1014.9
20260502200105 70 300 3.0 9.0 0.00 0.00 0.00 29 1014.9
20260502195607 68 41 4.0 9.0 0.00 0.00 0.00 30 1015.1
20260502194605 68 297 4.0 15.0 0.00 0.00 0.00 31 1015.4
20260502194105 69 341 4.0 11.0 0.00 0.00 0.00 29 1015.3
20260502193605 68 348 4.0 15.0 0.00 0.00 0.00 29 1015.4
20260502193103 68 316 4.0 15.0 0.00 0.00 0.00 30 1015.6
20260502192603 67 125 4.0 11.0 0.00 0.00 0.00 30 1015.5
20260502192104 68 250 4.0 11.0 0.00 0.00 0.00 30 1015.6
20260502191603 68 286 3.0 10.0 0.00 0.00 0.00 30 1015.7
20260502190604 67 258 4.0 11.0 0.00 0.00 0.00 32 1015.7
20260502185604 67 319 4.0 13.0 0.00 0.00 0.00 31 1015.8
20260502185104 67 288 4.0 13.0 0.00 0.00 0.00 31 1016.1
20260502184603 67 312 3.0 9.0 0.00 0.00 0.00 31 1016.0
20260502184103 67 341 3.0 9.0 0.00 0.00 0.00 31 1015.9
20260502183603 67 320 3.0 9.0 0.00 0.00 0.00 32 1016.1
20260502183103 66 336 4.0 12.0 0.00 0.00 0.00 33 1016.1
20260502182602 66 255 4.0 12.0 0.00 0.00 0.00 33 1016.4
20260502182104 66 308 3.0 10.0 0.00 0.00 0.00 33 1016.4
20260502181605 65 109 2.0 6.0 0.00 0.00 0.00 33 1016.4
20260502181103 65 193 3.0 9.0 0.00 0.00 0.00 34 1016.4
20260502180604 65 157 3.0 9.0 0.00 0.00 0.00 34 1016.7